Wind_Speed
68 69 69 70 70 70 71 71 72 73 74 74 75 76 76 77 77 78 78 79 79 79 80 80 81 81 81 81 81 81 81 81 80 79 79 78 77 77 77 77 77 77 77 77 77 78 78 78 79 82 84 87 89 91 91 91 91 92 92 93 95 96 97 96 96 96 96 94 93 93 92 91 90 89 89 89 89 89 90 90 90 90 89 90 90 91 91 91
66 66 67 67 68 68 68 69 70 70 71 72 73 74 75 75 76 76 77 77 77 78 78 79 79 79 80 80 80 80 80 80 79 78 78 78 77 76 76 76 76 75 75 75 75 76 76 75 76 78 80 82 84 86 87 88 89 90 91 92 94 96 96 94 94 95 94 93 92 91 90 89 88 88 88 88 88 89 90 90 90 90 90 89 89 89 90 89
63 64 64 65 65 66 66 67 68 68 69 70 71 72 73 74 75 75 75 75 75 76 76 77 78 78 78 78 79 79 78 78 78 77 77 77 77 76 76 76 75 75 74 74 74 74 74 74 74 75 76 77 78 79 81 82 84 85 86 89 93 94 93 92 92 93 92 91 90 90 89 87 86 86 86 87 87 88 89 89 89 89 89 88 88 88 88 88
60 61 61 62 63 64 65 66 67 68 68 69 70 70 72 73 74 74 74 74 74 74 75 75 76 77 77 78 78 78 77 77 77 77 77 76 76 76 76 76 75 74 74 74 74 73 72 73 73 74 74 74 74 74 75 76 77 78 80 85 89 89 88 89 89 89 89 89 88 87 86 85 84 84 84 85 86 87 87 87 87 87 87 86 86 86 86 85
58 58 59 60 61 62 63 64 65 67 67 68 69 70 71 72 73 73 73 73 73 73 73 74 74 75 76 76 77 77 77 76 76 76 76 76 76 76 76 75 75 74 74 74 73 72 72 72 73 73 73 73 72 72 73 72 71 71 74 79 82 81 82 83 83 84 84 84 84 83 82 82 81 81 82 83 84 84 84 84 84 84 83 83 83 83 82 82
56 56 57 58 58 59 61 62 63 64 65 66 67 69 70 71 72 73 73 73 73 73 73 73 73 73 74 75 76 76 76 75 75 76 75 75 75 75 75 75 75 74 74 73 73 73 73 73 73 72 72 71 71 71 72 71 68 68 71 75 76 75 76 77 76 77 77 78 79 78 78 78 78 79 79 80 80 80 80 80 79 79 78 78 79 78 77 77
54 54 55 55 56 57 58 59 60 61 62 64 65 66 68 69 71 72 72 73 73 73 73 73 73 73 73 74 74 75 75 74 75 75 75 75 75 75 75 75 75 74 74 73 73 73 73 73 73 72 72 71 70 71 70 68 67 67 70 73 74 72 73 74 73 74 74 74 75 75 74 74 74 75 74 74 74 75 74 73 73 72 72 72 73 73 72 72
51 52 53 53 53 54 55 56 58 59 60 62 63 64 65 67 68 69 71 71 72 73 73 73 73 73 73 73 74 74 73 74 74 75 75 75 75 75 75 75 74 74 74 74 74 74 74 73 73 73 72 71 70 70 69 68 67 68 71 73 73 72 73 74 73 73 73 73 72 71 70 71 71 70 69 68 69 69 68 68 68 67 67 68 69 69 68 68
49 50 50 51 51 52 52 54 55 57 58 59 61 62 63 64 65 67 68 69 70 71 72 73 73 73 73 74 73 73 73 73 73 74 74 74 75 75 74 74 74 74 74 74 74 74 74 73 72 72 71 71 71 71 70 69 69 70 72 72 72 72 73 75 74 73 73 72 71 69 70 70 69 67 67 67 66 66 66 66 66 65 65 66 67 67 67 66
46 47 48 48 49 49 50 51 53 54 56 57 58 60 61 62 63 64 65 66 67 69 70 71 72 73 73 73 73 72 72 72 72 73 73 73 74 74 74 74 74 74 74 74 74 73 73 72 72 72 72 72 72 72 71 71 70 72 73 72 72 73 74 75 75 74 73 72 71 70 70 69 68 66 67 67 66 66 66 66 66 65 66 68 68 67 67 65
44 45 45 46 46 47 48 49 50 52 53 54 56 57 59 60 61 62 63 64 65 66 67 68 70 71 72 72 72 72 72 71 72 72 72 72 72 73 73 73 73 73 73 73 72 72 72 72 72 72 73 72 73 73 72 71 71 71 72 72 72 73 74 75 76 76 74 72 71 69 69 67 67 68 68 68 67 67 67 67 67 67 68 69 69 68 66 65
42 43 43 44 45 46 47 47 48 49 50 52 53 55 56 57 59 60 61 62 62 63 64 66 67 68 69 70 70 71 71 70 71 71 71 71 71 71 72 72 72 72 72 71 71 71 71 71 71 71 72 72 72 72 71 71 71 71 72 72 72 73 74 76 77 76 73 71 70 69 67 67 69 71 71 69 69 69 68 69 69 69 70 70 69 67 66 65
40 41 41 42 43 44 45 46 46 47 49 50 51 52 53 54 56 57 58 59 60 61 62 63 64 65 66 67 68 69 68 68 69 70 70 70 70 70 71 70 70 70 70 70 70 70 69 69 70 70 71 71 71 71 70 70 70 71 71 72 72 73 75 76 76 75 73 72 71 69 67 68 71 73 71 70 70 69 68 70 70 69 69 69 67 66 65 64
39 39 40 40 41 42 43 44 44 45 47 48 49 50 51 52 54 55 56 57 59 60 61 62 62 63 63 64 66 66 65 66 67 67 68 68 68 68 69 69 69 69 68 68 68 67 67 68 69 69 70 70 70 70 69 69 70 70 70 71 72 73 75 75 74 73 73 73 71 69 66 68 73 73 70 70 69 67 68 69 68 68 68 67 66 65 64 62
37 38 38 39 39 40 41 42 43 43 45 46 48 49 50 51 52 53 54 55 57 58 59 60 61 61 61 63 64 64 63 63 65 65 65 66 66 66 66 67 67 67 66 66 66 65 66 67 67 67 68 68 68 68 67 68 68 69 69 70 71 72 74 74 72 72 72 72 71 68 66 68 71 70 68 68 67 65 66 66 65 65 66 65 63 62 60 59
35 36 37 37 38 38 39 40 41 42 43 44 46 47 49 50 50 51 52 53 55 56 57 58 59 60 60 62 63 62 61 61 63 63 63 63 63 63 64 64 64 64 64 63 63 63 64 65 65 65 66 66 66 66 66 66 67 68 68 68 69 70 72 71 71 70 70 70 69 67 66 66 67 67 66 66 65 64 64 64 63 62 62 60 59 58 57 56
34 35 35 36 36 37 37 38 39 40 41 42 44 45 47 48 49 50 51 52 54 55 56 57 58 58 59 60 61 60 60 60 61 62 62 62 61 61 61 61 61 61 61 61 61 61 62 62 63 63 63 63 64 64 64 65 65 66 66 66 67 68 69 68 68 67 67 67 67 65 64 63 64 64 64 63 62 62 62 61 60 59 58 57 56 55 54 53
33 33 34 34 35 36 36 36 37 38 39 41 42 43 44 46 48 49 51 52 53 54 55 56 56 56 57 58 59 60 60 59 60 60 61 60 60 59 59 58 59 59 58 58 58 58 59 60 60 61 61 62 62 62 62 62 63 63 63 63 64 64 65 65 64 64 64 64 63 62 61 60 60 60 60 60 59 58 58 57 56 56 54 53 52 51 51 51
32 32 33 33 34 35 35 36 36 36 37 38 40 41 43 45 47 48 50 51 52 53 54 55 56 56 57 58 58 59 59 58 58 58 59 58 58 57 57 56 56 56 56 56 56 57 57 58 59 59 59 60 60 60 59 59 59 60 60 61 61 61 62 62 61 61 61 60 59 59 58 56 56 55 56 56 55 54 54 53 52 51 50 50 49 49 50 48
32 31 32 32 32 33 35 35 35 35 35 36 38 40 42 44 45 47 49 50 51 53 53 54 55 56 57 57 57 58 58 57 57 57 57 57 56 56 55 55 55 55 55 54 54 55 55 56 57 57 57 57 57 56 56 56 57 57 58 58 59 59 59 59 58 57 57 57 56 55 54 53 53 52 53 53 52 51 50 50 49 48 48 47 47 48 49 47
31 31 31 31 32 32 33 35 35 34 34 35 37 39 41 42 43 45 47 48 50 51 53 54 54 55 56 56 57 58 57 57 57 57 56 56 55 55 54 54 54 54 53 53 54 54 54 54 54 54 53 53 54 54 53 54 54 54 55 56 56 56 56 56 55 54 54 53 52 51 50 51 51 50 50 50 50 50 49 48 47 46 46 46 47 48 48 47
31 30 30 30 31 31 32 34 34 35 34 35 37 38 39 41 41 43 44 46 48 50 52 53 54 55 54 55 56 56 57 57 56 55 55 54 54 54 54 53 53 52 52 52 53 53 52 52 51 50 51 51 52 51 51 52 52 53 53 54 53 53 53 53 52 51 50 50 48 47 47 48 48 48 48 48 49 49 48 47 46 46 47 47 47 47 47 47
31 30 30 29 30 30 31 32 33 35 35 35 37 37 37 38 39 40 42 45 47 49 51 52 54 54 53 55 56 56 56 56 55 55 55 54 54 54 53 53 52 51 52 53 52 51 50 49 48 48 48 49 49 49 49 50 51 51 52 52 52 51 51 51 50 48 47 46 46 45 45 46 46 46 46 47 48 48 47 46 46 46 47 46 46 47 47 47
32 31 30 29 29 30 31 31 33 34 35 37 37 36 35 36 36 38 41 43 45 47 50 52 53 53 53 53 54 55 56 55 54 55 56 55 54 54 54 53 51 51 53 53 51 50 49 48 47 47 47 47 47 46 46 47 48 49 50 50 49 48 48 48 47 46 45 44 44 43 44 44 45 45 47 47 47 47 47 46 45 45 46 46 45 46 46 46
34 33 31 30 30 30 30 31 32 34 35 37 37 35 34 33 34 37 39 42 44 45 48 51 52 51 51 51 54 56 56 55 55 56 56 55 54 54 53 52 52 53 54 53 51 49 48 47 47 46 46 45 45 45 45 45 47 48 48 47 46 46 46 46 46 45 44 44 43 43 44 44 44 46 47 47 47 47 47 46 45 45 45 45 45 44 44 44
35 34 33 32 31 30 30 31 32 33 35 36 36 35 34 32 34 37 38 40 43 44 46 50 50 49 49 51 55 56 55 56 55 55 56 56 55 54 53 53 54 54 54 53 51 49 49 48 47 46 46 46 46 46 45 45 47 48 48 46 45 44 44 45 45 44 44 43 43 44 45 44 45 46 47 47 47 47 46 46 45 44 44 43 43 42 42 42
36 35 35 34 33 31 31 31 32 33 35 34 34 34 34 33 35 37 38 40 43 43 45 48 48 47 48 50 53 54 55 56 55 55 56 56 55 54 54 54 54 54 53 52 51 50 50 49 47 47 47 48 48 47 46 46 47 48 48 46 45 44 44 44 44 44 44 43 43 44 45 44 45 46 47 46 46 45 45 44 44 43 43 42 42 41 40 41
37 37 36 36 35 34 33 32 32 33 35 34 33 33 34 34 35 37 38 40 43 43 44 46 46 46 47 48 51 53 56 56 55 55 55 55 55 55 54 55 55 54 52 51 52 52 51 49 49 48 48 49 49 48 48 47 48 49 49 48 46 45 45 45 45 45 44 44 44 44 45 45 45 46 46 45 45 44 44 43 43 43 42 42 42 41 40 40
38 38 38 37 36 36 35 34 32 33 35 34 32 32 34 35 36 37 38 41 43 43 43 44 44 45 46 47 50 52 54 54 54 54 54 54 55 55 56 56 55 53 51 52 53 53 52 51 50 50 50 51 51 50 50 49 50 50 50 50 48 46 45 45 46 45 45 44 44 44 44 44 45 45 45 44 43 43 42 42 42 42 42 41 42 41 41 41
39 39 40 39 38 37 37 35 33 34 35 34 33 33 33 34 36 36 37 42 45 43 42 42 43 44 44 46 49 51 52 52 53 53 54 54 54 55 55 55 54 52 52 52 54 54 53 52 52 51 52 52 52 52 51 51 51 52 52 51 49 47 46 46 46 46 45 44 43 43 42 43 43 44 43 42 42 42 42 42 42 42 42 42 42 41 41 40
40 40 41 41 39 39 39 36 34 37 37 34 33 33 34 34 34 35 38 44 45 42 42 42 42 43 44 45 47 48 50 50 51 52 53 52 53 53 54 54 53 53 52 52 54 55 54 53 52 52 53 53 53 53 52 52 52 52 53 52 50 49 48 47 46 46 45 45 44 43 42 42 41 42 43 43 42 41 42 42 42 41 41 42 42 40 40 38
41 40 41 42 41 40 40 36 35 39 39 36 35 33 34 34 33 36 41 45 44 41 42 42 42 43 43 44 46 47 48 48 49 51 51 51 51 52 52 53 53 52 52 51 53 54 53 52 52 52 52 52 52 52 53 53 53 53 53 52 50 49 48 48 47 47 46 45 45 44 43 42 41 42 43 44 43 42 42 42 42 40 40 41 41 39 38 36
41 41 42 43 43 42 41 37 36 39 40 39 37 35 35 34 34 40 44 45 42 40 41 42 43 44 44 45 47 48 48 48 48 49 49 49 49 50 52 52 52 51 51 50 51 52 52 52 51 51 51 51 51 52 53 52 52 52 52 50 49 49 48 48 48 47 46 46 45 44 43 42 41 41 42 44 44 43 42 41 40 39 39 39 39 37 35 34
41 41 42 44 44 43 41 38 38 40 41 41 39 37 35 35 38 44 45 43 40 39 40 41 43 44 45 47 48 47 47 48 47 47 47 47 47 49 50 50 50 50 50 49 49 50 50 50 50 50 50 50 50 51 51 51 50 50 50 49 48 48 48 49 49 48 47 46 45 44 42 41 40 40 42 44 45 43 42 41 39 37 37 37 36 34 33 32
42 41 43 44 45 45 42 40 40 42 43 43 41 38 36 39 43 46 44 41 39 38 40 40 42 44 46 48 49 48 48 48 47 47 47 47 47 48 48 48 48 47 47 47 47 48 48 48 48 49 49 49 49 50 50 49 48 48 48 48 48 48 48 48 48 48 48 46 45 44 41 41 41 41 41 43 45 44 42 40 38 36 35 35 34 33 31 29
43 42 43 45 46 46 45 43 42 43 45 44 41 38 39 44 46 46 44 40 38 38 40 40 41 43 45 47 49 48 48 48 48 47 47 47 47 47 47 46 46 44 44 45 45 46 46 46 47 47 47 47 47 48 47 47 46 46 46 47 48 48 47 47 47 47 47 47 46 44 42 41 41 40 41 43 45 45 43 40 38 36 35 34 33 32 30 29
45 43 43 45 47 48 47 45 43 44 46 45 41 39 43 46 47 46 45 41 38 38 39 41 41 42 42 44 47 48 48 49 49 48 48 48 47 47 46 46 46 45 44 44 44 44 45 46 46 46 45 44 44 45 45 45 45 45 46 46 47 47 47 46 46 46 47 47 46 44 43 42 41 41 42 43 45 45 44 41 39 37 36 34 34 32 31 30
46 44 45 47 49 49 48 46 45 45 47 45 42 42 45 47 48 48 46 42 39 37 38 40 41 42 42 42 43 45 47 48 50 50 49 48 49 48 48 48 48 48 46 45 45 44 44 46 45 45 45 44 44 45 45 45 46 46 47 47 47 47 46 46 46 47 47 48 47 45 43 42 43 43 44 45 45 45 44 43 41 39 37 36 36 34 35 34
48 45 46 48 51 51 49 48 47 47 47 45 44 45 47 48 51 50 47 43 39 36 37 40 41 41 42 41 42 43 44 46 49 50 49 49 50 50 51 51 50 49 48 47 46 45 45 46 46 46 46 45 45 47 47 47 47 48 48 48 47 48 47 47 48 48 48 48 48 47 44 43 44 45 45 46 46 45 45 44 43 42 40 39 39 38 40 39
50 47 48 50 51 52 50 49 48 48 47 47 48 49 49 50 52 51 48 44 40 38 39 40 41 41 41 42 42 41 42 44 46 48 49 49 50 52 53 53 52 51 50 48 47 46 46 47 48 48 48 48 48 49 48 49 49 50 51 50 49 50 50 49 49 50 49 49 48 48 46 45 45 46 47 48 48 47 47 47 46 45 44 43 43 42 43 43
52 50 50 52 53 53 52 51 49 49 48 49 50 51 51 51 52 51 48 45 42 40 41 41 41 41 41 42 42 42 42 42 43 45 46 48 50 52 53 54 53 52 51 50 48 47 47 48 50 52 52 51 51 50 50 51 51 52 52 52 52 52 52 51 51 50 50 50 49 48 48 48 48 48 49 50 50 50 50 50 50 49 48 47 46 46 47 46
54 53 53 54 54 54 54 52 51 50 49 50 51 52 51 50 50 51 50 47 44 41 41 42 42 41 41 41 42 42 42 42 42 43 43 44 47 49 51 54 54 53 52 51 49 49 49 50 52 54 54 54 54 52 51 52 52 52 53 53 53 54 53 53 52 51 50 50 51 50 49 49 49 50 51 51 52 52 53 54 53 53 52 51 50 50 51 51
53 53 54 55 56 56 55 54 52 52 51 52 53 53 51 50 51 53 51 48 45 43 43 43 43 42 41 42 43 42 42 42 43 42 42 42 43 46 48 51 53 53 52 51 51 51 51 52 54 55 56 56 55 53 51 52 52 53 53 54 55 55 54 54 53 52 51 51 52 51 50 50 51 52 53 54 54 55 55 56 56 56 56 55 55 54 54 55
48 49 51 53 54 55 56 56 55 55 54 55 55 54 53 52 53 54 52 49 47 46 46 45 45 44 43 44 44 43 43 43 44 44 43 42 43 44 46 47 50 51 52 52 53 52 52 54 55 56 57 57 55 54 52 52 53 54 55 55 56 57 56 56 56 55 54 54 53 52 51 52 53 54 55 56 57 58 58 58 58 58 59 58 58 58 57 58
41 42 45 48 50 52 54 55 57 57 57 57 57 56 55 54 53 54 54 51 49 49 48 48 47 45 45 45 45 44 44 44 45 46 45 44 43 44 45 45 47 50 50 52 53 53 54 56 56 56 58 57 56 56 55 55 56 57 58 59 59 60 60 60 60 59 58 57 56 55 55 56 57 57 58 59 60 61 61 62 62 61 61 61 61 61 60 60
36 37 40 43 46 49 50 51 54 56 56 58 57 57 55 54 55 56 55 54 52 51 51 50 48 47 47 47 46 46 45 45 47 48 48 47 45 45 46 45 46 48 49 50 52 52 54 56 57 57 58 58 58 58 59 59 60 60 62 63 63 63 63 63 62 61 60 60 58 58 58 59 60 61 61 62 63 64 65 65 65 65 65 65 64 65 65 65
34 34 36 38 41 44 44 46 50 52 54 57 56 56 56 56 57 58 57 56 55 53 53 52 50 49 48 48 48 47 46 46 48 49 49 49 48 47 47 47 47 48 48 48 49 50 52 55 56 57 58 59 59 60 61 62 62 62 64 65 65 65 64 64 63 62 61 60 60 59 59 60 61 61 62 64 65 66 67 67 68 68 68 68 68 68 68 68
32 31 32 34 37 39 40 42 46 48 51 54 54 55 57 58 59 59 59 58 57 55 55 54 53 51 50 49 49 49 48 48 49 50 51 51 50 49 49 49 49 49 48 48 49 49 50 52 54 55 57 59 60 61 62 63 63 63 63 64 64 63 61 60 59 58 57 57 57 56 56 57 57 58 58 60 61 62 63 64 65 66 67 68 69 69 69 69
29 29 29 30 33 36 38 39 41 43 47 50 50 53 55 56 58 59 59 59 59 58 57 56 55 53 52 51 50 50 51 50 51 51 52 52 52 51 51 51 51 50 50 50 50 50 51 52 53 54 55 57 59 60 61 62 61 60 60 60 59 57 56 54 53 52 52 51 51 52 52 52 52 53 53 54 54 55 56 58 59 61 62 64 65 65 66 67
26 26 26 27 30 33 35 36 37 39 41 44 47 49 52 54 56 58 59 60 60 59 59 58 57 55 54 53 52 52 52 52 52 53 53 53 53 53 53 53 52 52 52 52 53 52 52 53 54 54 54 56 57 57 58 58 57 56 55 54 53 52 52 52 51 50 49 49 49 48 49 49 49 50 51 51 51 52 52 53 54 55 57 58 59 59 60 61
22 23 23 24 26 28 31 33 34 35 36 39 42 45 48 50 53 55 57 59 60 60 60 60 59 58 57 56 54 54 54 54 54 54 54 54 54 54 54 55 55 55 55 55 55 54 53 55 55 55 55 55 55 56 56 56 56 53 52 51 51 52 53 53 53 53 51 50 49 48 47 47 47 48 49 50 50 51 52 52 53 53 54 55 55 55 55 55
20 19 19 20 22 24 26 28 30 31 33 35 38 41 43 46 48 50 54 56 58 60 61 62 61 60 59 58 57 56 56 56 56 57 56 56 56 56 57 57 57 57 57 56 56 56 55 56 56 55 55 55 55 55 56 57 56 53 52 53 54 54 55 55 55 55 53 52 51 50 49 48 47 47 48 49 50 51 52 52 53 53 54 54 55 55 54 53
Wind_Direction
266 265 264 263 262 261 260 258 257 256 255 255 254 254 253 253 252 252 252 251 251 251 251 251 251 251 252 252 252 252 252 253 253 253 254 254 254 255 255 255 255 254 254 254 254 254 254 254 254 254 254 254 254 255 256 256 257 258 259 259 260 260 260 261 262 263 264 264 265 266 266 267 267 268 268 269 269 269 270 270 270 271 272 273 274 275 276 276
266 265 264 263 262 261 260 259 257 256 255 254 253 253 252 252 252 251 251 251 251 251 251 251 251 251 251 251 252 252 252 253 253 253 254 254 255 255 255 255 256 256 255 255 254 254 254 254 254 254 254 254 255 255 256 256 257 258 259 260 260 261 261 262 263 264 265 265 266 266 267 267 268 268 268 268 268 269 269 270 271 272 273 274 274 275 275 275
266 265 264 263 261 260 260 258 257 256 255 254 253 252 251 251 251 251 251 251 251 250 250 250 250 250 251 251 251 252 252 253 253 253 254 254 255 255 256 256 256 256 256 256 255 255 255 254 254 254 255 255 255 256 256 256 256 257 258 259 260 261 261 262 263 264 265 265 266 266 267 267 267 267 268 268 268 268 269 271 272 273 273 273 274 274 275 276
266 265 264 263 261 260 259 258 257 256 255 253 252 251 251 250 250 250 250 250 250 250 250 250 250 250 250 250 251 251 252 252 253 253 253 254 254 255 256 256 257 257 257 257 257 257 256 256 255 255 255 255 255 256 256 256 256 257 258 259 260 261 261 262 262 263 264 265 265 266 266 266 266 267 267 267 268 268 270 271 272 272 273 274 274 274 275 276
267 266 265 263 261 260 259 257 256 255 254 253 252 251 250 250 249 249 250 250 250 250 250 250 250 250 250 250 250 251 251 252 252 253 253 253 254 254 255 256 256 257 257 258 258 258 257 257 257 256 256 256 256 257 257 257 257 258 259 259 260 261 261 262 263 263 264 265 265 265 265 265 266 266 266 267 268 269 270 271 272 273 274 275 275 275 276 277
269 267 265 264 262 260 259 258 256 255 254 253 252 251 250 249 249 249 249 249 249 249 249 250 250 250 250 250 250 250 250 251 252 252 253 253 253 254 254 255 255 256 257 257 258 258 258 258 258 258 258 258 259 259 259 259 259 260 260 260 261 261 262 262 262 262 263 263 264 264 264 265 266 266 267 268 269 270 271 272 273 274 275 276 276 276 277 277
270 268 266 264 262 261 259 258 257 255 254 253 252 250 250 249 249 248 248 248 248 248 249 249 249 249 250 250 250 250 250 250 251 251 252 252 253 253 254 255 255 256 256 257 257 258 258 258 259 259 260 260 261 261 261 261 261 260 260 260 261 262 263 263 262 262 263 263 264 265 266 267 267 268 269 270 271 272 273 274 275 276 276 276 277 276 277 278
270 268 266 264 263 261 260 258 257 256 254 253 251 250 249 249 248 248 248 248 248 248 248 248 249 249 249 250 250 250 250 250 251 251 251 252 252 253 253 254 255 255 256 256 257 257 258 259 259 260 261 261 261 261 261 261 261 260 260 261 262 263 264 264 264 264 265 265 266 268 269 269 269 271 272 273 273 274 275 275 276 276 276 276 276 276 277 279
270 268 266 265 263 262 260 259 258 256 254 253 251 250 249 249 248 248 248 248 248 248 248 248 248 249 249 249 250 250 250 250 251 251 251 252 252 253 253 254 254 255 255 256 256 257 258 259 260 260 261 260 260 260 260 260 260 260 261 262 264 264 264 265 265 265 266 267 268 269 270 270 272 273 274 274 274 274 275 275 275 276 276 275 275 276 278 279
270 268 266 265 264 263 261 260 258 257 255 253 252 250 249 248 248 248 248 247 247 247 248 248 248 248 249 249 249 250 250 250 251 251 251 252 252 253 253 253 254 254 255 255 256 257 258 259 259 259 259 259 260 260 260 260 260 261 262 263 264 264 264 265 266 266 266 267 269 270 271 273 274 274 273 273 273 273 274 274 275 274 274 273 274 276 278 279
271 268 267 265 264 263 262 260 259 258 256 254 252 251 250 249 248 248 248 247 247 247 247 248 248 248 248 249 249 249 250 250 250 251 252 252 252 253 253 253 254 254 255 255 256 257 257 258 258 259 259 259 260 260 260 261 261 262 262 263 263 264 264 265 265 266 267 268 269 270 271 273 273 271 270 271 271 272 272 273 273 272 272 273 275 276 278 278
271 268 267 265 264 263 262 261 259 258 256 255 253 252 250 249 248 248 247 247 247 247 247 247 248 248 248 249 249 249 249 249 250 251 251 252 252 253 253 253 254 254 254 255 255 256 256 257 258 258 259 259 259 260 260 261 261 261 261 262 262 263 263 264 265 266 268 269 269 269 269 270 269 268 269 270 270 271 272 271 271 272 272 274 275 276 277 277
272 269 267 265 264 263 262 261 259 258 256 255 254 252 251 249 248 247 247 247 247 247 247 247 247 247 248 248 249 249 249 249 250 250 251 251 252 252 253 253 253 254 254 255 255 256 256 257 257 257 257 258 258 259 260 260 260 260 261 261 261 262 262 263 265 267 267 267 267 267 267 268 267 267 268 269 270 271 271 271 271 272 272 273 274 275 276 276
274 270 268 266 264 262 261 261 259 258 256 255 253 252 251 249 248 247 246 246 246 246 246 246 246 247 247 248 248 248 249 249 250 250 250 251 251 252 252 253 253 254 254 255 255 256 256 256 256 257 257 258 259 259 260 260 260 260 260 260 260 261 262 263 264 265 265 266 266 266 266 266 266 267 269 270 270 271 270 270 271 271 272 273 273 274 275 275
275 272 269 266 264 262 261 260 260 258 256 255 253 252 250 249 248 247 246 245 245 245 245 245 245 246 246 247 247 248 248 248 249 249 250 250 250 251 252 252 253 253 254 254 255 255 255 256 256 257 258 258 259 259 259 259 259 259 259 260 261 261 261 262 263 264 265 265 266 266 265 264 266 268 269 269 269 269 269 269 270 270 271 272 273 274 273 273
277 273 271 268 265 262 261 260 259 258 256 255 253 252 250 249 248 247 245 245 244 244 244 244 244 245 245 245 247 247 247 247 248 249 249 249 250 250 251 251 252 253 253 253 254 254 255 255 256 257 257 258 258 258 258 258 258 259 259 260 261 261 262 263 263 264 264 265 265 265 264 265 266 267 267 267 267 267 266 267 268 269 270 271 271 271 270 270
279 275 272 270 266 263 261 260 259 258 257 255 253 252 251 249 248 246 245 244 243 243 243 243 244 244 244 245 246 246 245 246 247 248 248 248 249 250 250 251 251 252 252 253 253 253 254 255 255 256 257 257 258 258 258 258 259 260 261 261 260 261 262 263 263 264 264 264 265 265 265 264 265 265 266 266 266 265 266 267 267 267 268 268 268 268 268 267
280 277 274 271 268 264 261 260 260 259 257 255 253 252 251 249 247 245 244 243 242 242 242 242 243 243 243 244 245 245 245 245 246 247 248 248 249 250 250 251 251 251 252 252 252 252 253 254 254 255 255 256 257 258 258 259 260 261 261 260 260 260 261 262 262 263 263 264 264 265 264 264 264 264 265 265 265 265 265 266 266 266 266 266 267 267 266 266
282 278 275 272 270 266 263 261 260 260 258 256 254 251 250 248 247 245 244 243 242 242 241 241 241 241 241 242 243 244 244 244 245 247 248 248 249 249 250 250 251 251 251 252 252 252 252 253 254 254 255 257 258 259 259 260 260 260 260 259 260 260 260 260 261 261 262 263 264 264 264 264 264 263 263 263 263 264 264 264 264 265 265 265 265 265 265 267
284 280 276 273 271 268 265 262 260 260 259 258 255 252 249 248 247 245 244 243 242 242 241 241 241 241 241 241 242 243 244 243 244 245 246 247 248 248 249 249 250 250 251 252 252 252 252 253 254 255 256 258 258 259 259 259 259 259 259 259 260 260 260 260 261 261 262 262 263 264 264 263 262 262 262 262 262 262 262 262 262 263 263 263 263 263 265 266
284 282 278 274 272 269 266 263 261 260 259 259 256 253 250 248 247 246 245 244 243 242 242 241 241 241 241 241 242 242 243 243 243 244 245 246 247 248 248 249 249 250 251 251 251 251 252 253 254 256 257 257 258 258 258 258 258 258 259 259 259 260 261 261 261 261 261 262 263 263 263 263 262 261 261 261 261 261 261 260 261 261 261 261 261 262 264 264
284 283 280 276 273 270 268 265 262 260 259 259 257 255 252 250 248 247 246 245 243 243 242 242 242 241 241 241 242 242 243 243 244 244 244 245 246 247 247 248 248 249 250 250 250 251 252 253 255 256 256 257 257 258 258 258 258 258 258 258 259 260 260 261 261 261 261 262 262 262 262 262 262 261 260 260 260 260 260 260 260 259 259 259 260 261 262 263
284 283 282 279 275 271 268 266 263 261 259 258 257 256 255 253 250 248 247 245 243 242 242 242 242 241 240 241 242 242 243 243 244 244 244 243 244 245 246 247 248 249 249 249 250 251 252 253 254 255 256 257 258 258 258 258 258 258 258 258 259 259 260 261 261 261 260 260 260 260 259 260 260 260 259 258 259 259 260 260 260 260 260 261 261 261 262 263
283 282 282 280 277 273 269 267 264 261 259 257 257 256 256 255 253 250 248 246 244 242 242 242 241 241 240 241 242 242 243 243 243 244 244 243 243 244 245 246 247 247 248 249 250 251 252 253 254 255 256 257 258 258 258 258 258 258 259 259 259 259 259 260 260 259 259 258 257 257 256 257 258 258 258 258 258 259 259 259 260 260 261 261 261 262 263 264
282 281 281 280 278 276 272 268 265 262 260 258 258 257 257 256 256 253 250 248 245 243 243 243 241 241 240 241 241 241 242 242 242 243 244 244 243 243 244 246 246 246 247 248 249 250 252 252 253 255 256 257 257 257 257 257 258 258 258 258 258 258 258 258 258 257 256 255 255 255 254 254 255 255 256 257 258 259 259 259 259 259 260 261 261 261 262 263
280 280 280 279 278 276 274 271 267 264 261 260 259 259 258 256 255 254 251 250 247 243 243 243 242 241 240 240 241 242 242 242 242 242 244 244 244 244 244 244 245 246 247 248 249 250 251 252 253 254 255 256 256 256 257 257 257 257 258 258 258 258 257 257 257 256 255 255 254 254 254 253 253 254 254 256 257 259 259 259 259 258 258 258 259 259 259 260
278 278 278 278 277 276 274 272 270 267 264 262 260 259 258 255 254 253 252 251 249 245 243 244 243 241 240 240 242 243 243 242 242 242 243 244 245 245 245 245 246 247 248 249 250 250 251 252 252 253 254 255 256 256 257 256 257 257 258 258 257 256 256 255 255 255 255 254 254 255 255 255 254 254 255 255 256 257 258 259 259 258 257 256 256 255 256 257
277 276 276 275 275 275 273 272 271 270 268 264 261 258 257 255 253 252 251 251 251 248 245 244 243 241 240 241 242 243 243 243 243 243 244 245 246 246 246 246 247 247 248 250 251 251 251 251 252 252 253 254 255 256 256 256 256 257 257 257 256 255 255 255 254 254 254 254 254 255 256 256 256 255 256 256 256 256 257 257 257 257 257 256 255 254 254 255
275 274 273 273 273 273 272 271 271 270 269 267 264 260 256 255 254 253 252 251 250 249 247 246 245 243 240 240 242 243 244 245 245 245 245 245 246 246 247 247 247 248 249 250 251 251 251 250 251 252 252 253 254 254 255 255 255 256 256 256 256 255 254 255 255 255 255 255 255 256 256 257 257 257 257 257 256 256 255 255 254 254 254 254 254 254 253 254
273 272 272 271 271 271 271 270 271 270 269 268 266 262 258 255 254 254 253 251 250 249 249 248 247 245 242 241 242 243 245 246 246 246 246 246 246 247 248 249 249 249 249 250 251 251 251 250 251 251 252 252 253 254 254 254 255 255 255 256 256 256 255 255 256 256 256 256 256 256 256 257 258 259 258 256 256 256 255 254 253 252 252 253 253 253 254 255
272 271 270 270 269 269 269 269 271 270 269 268 266 264 262 257 254 254 253 251 250 249 249 248 247 247 245 243 243 243 244 245 246 246 247 247 247 248 249 249 249 249 249 249 251 251 251 251 251 251 252 252 253 254 254 254 254 254 255 256 257 257 257 256 255 256 257 257 256 256 255 255 257 258 258 257 255 254 253 253 253 252 252 252 253 253 254 256
270 269 269 268 268 267 267 269 268 268 269 268 266 265 263 260 257 254 251 250 249 249 248 247 246 246 245 244 243 243 243 244 244 246 246 247 248 249 249 249 249 249 249 250 251 252 253 253 252 252 253 253 253 253 253 253 253 254 255 257 257 257 257 257 255 255 256 256 256 256 255 254 254 256 259 259 257 254 252 252 252 251 251 252 252 252 252 253
269 268 267 267 266 265 266 267 267 267 268 267 266 264 263 262 259 254 251 250 249 249 249 248 247 246 245 244 243 243 244 244 244 245 246 246 247 248 249 249 250 250 250 249 251 252 253 253 253 252 252 252 252 252 252 252 253 254 255 256 257 256 256 256 256 254 254 254 254 255 255 255 254 255 257 258 257 255 252 250 249 248 248 249 249 249 249 249
267 267 266 266 266 265 265 266 265 264 264 264 264 263 263 262 258 255 253 252 251 250 250 249 248 247 245 244 244 244 244 245 244 245 246 245 246 247 248 248 249 249 249 249 250 251 252 252 252 251 251 251 251 252 252 252 253 254 254 255 255 255 255 255 255 254 253 253 253 253 253 253 253 252 253 255 257 256 253 251 248 244 244 245 246 246 246 247
267 265 265 265 265 265 264 262 261 261 261 261 261 262 262 259 257 256 256 255 253 251 250 249 248 247 246 245 246 245 245 245 245 245 246 246 246 247 248 248 248 249 249 249 249 250 251 251 251 251 251 251 251 252 252 253 253 253 254 254 253 253 254 255 255 255 255 254 253 252 251 251 250 250 252 254 257 257 255 253 249 243 240 242 243 243 243 245
268 265 265 265 264 263 261 259 258 259 260 260 260 261 260 257 257 259 259 257 254 252 250 249 248 248 248 247 247 247 246 246 246 245 246 246 247 248 249 249 249 248 248 248 248 249 251 251 251 251 252 252 253 254 254 254 254 253 253 254 254 253 253 255 256 256 256 254 252 251 249 248 247 248 250 253 256 257 256 254 252 246 241 240 241 242 243 245
268 266 265 264 263 261 260 259 257 257 258 259 259 259 258 258 260 260 260 258 255 252 252 251 249 249 249 249 249 249 248 247 246 244 244 245 246 247 247 248 247 246 245 246 246 247 249 250 250 251 252 252 253 254 254 254 254 253 253 253 255 255 255 256 257 257 257 256 253 251 248 246 246 245 247 250 252 255 255 253 251 248 244 241 241 242 243 244
268 266 265 263 262 261 260 259 257 256 257 258 258 256 256 258 258 258 259 258 255 253 253 252 250 249 249 249 249 250 249 248 247 245 243 243 243 244 244 245 245 246 245 245 245 246 248 250 251 251 251 250 250 252 252 252 252 253 253 253 254 256 257 257 258 257 257 256 255 253 249 248 246 245 245 248 250 253 255 255 253 249 246 242 241 240 240 239
269 266 264 263 262 260 259 258 257 255 256 256 256 254 253 254 256 257 257 257 257 255 254 253 251 250 249 249 249 249 250 249 249 248 246 244 243 243 244 244 245 246 246 246 247 247 248 250 251 252 251 251 250 250 250 251 251 252 253 253 254 255 256 256 257 257 257 257 257 255 252 250 249 247 247 248 249 251 253 255 254 252 248 244 241 240 240 238
270 267 264 262 261 260 258 256 255 254 254 254 253 252 252 252 254 256 257 258 257 256 254 253 252 250 249 249 248 248 249 249 249 249 248 246 245 244 245 246 246 246 247 248 249 249 249 250 251 251 250 250 249 248 249 250 251 251 252 252 253 254 254 255 255 256 257 257 257 257 255 252 250 249 248 248 248 249 250 251 252 252 249 246 243 241 241 241
270 267 264 262 260 259 258 255 254 253 252 252 252 252 251 252 254 257 258 257 255 254 253 254 253 251 249 248 248 248 248 248 249 250 249 248 247 246 247 248 248 248 248 248 248 249 250 250 251 251 250 249 248 248 248 249 250 252 253 253 253 253 253 254 254 255 256 257 257 256 255 254 252 250 250 249 249 249 249 250 250 250 250 248 245 243 241 241
270 267 264 261 260 258 257 255 253 252 251 251 251 251 251 252 254 255 255 255 254 253 253 253 253 252 250 248 247 247 248 248 249 250 250 249 248 248 247 247 248 249 248 248 247 247 248 248 250 251 250 250 249 249 249 250 252 253 255 256 255 254 254 254 254 253 254 255 255 255 254 255 254 252 251 251 251 252 252 252 251 251 251 250 248 247 244 242
270 267 264 261 259 258 256 255 253 251 250 249 249 250 250 251 252 252 253 253 253 252 250 250 251 251 250 248 246 245 246 247 248 248 248 248 248 248 247 247 247 248 248 247 246 245 246 247 249 250 251 251 251 251 251 252 254 255 256 257 257 256 255 255 254 253 252 252 253 254 254 255 255 255 253 252 252 253 253 254 254 254 254 253 251 250 249 247
270 267 264 261 259 257 255 253 252 250 248 247 247 247 247 247 249 250 251 251 250 249 248 247 248 248 248 247 245 243 242 244 245 246 246 245 245 246 246 246 247 247 246 246 246 245 245 246 248 250 252 253 253 253 253 253 254 255 255 256 256 256 256 255 255 253 252 252 252 253 254 255 255 256 256 255 254 254 253 253 254 255 255 255 254 253 252 251
271 267 263 261 258 256 253 251 250 248 247 245 245 245 245 245 247 249 250 249 248 248 248 247 246 247 247 246 245 243 241 240 242 243 243 242 242 243 244 244 245 246 246 245 245 245 245 246 247 249 251 253 254 253 252 252 253 253 254 254 254 255 255 255 255 255 255 254 254 254 254 254 255 256 257 257 257 257 256 255 255 255 255 255 256 255 254 253
273 268 263 260 257 255 252 251 250 249 247 246 245 244 244 244 245 246 248 248 248 247 248 247 246 246 246 247 246 244 242 240 241 242 243 241 240 240 242 242 243 244 245 246 246 245 245 246 247 248 250 252 252 253 252 252 252 253 254 254 254 255 256 256 257 258 258 258 258 257 257 257 257 257 257 257 258 258 258 258 257 257 257 257 256 256 256 255
277 270 265 261 258 256 253 250 249 248 247 246 245 244 243 242 243 244 245 245 246 246 246 247 246 245 245 246 246 245 243 241 241 242 243 243 241 240 241 241 241 241 242 244 245 245 244 245 245 246 248 249 250 251 252 252 252 253 254 256 256 257 258 259 259 260 261 261 261 260 259 259 258 258 258 257 257 257 257 258 258 258 258 257 257 256 256 256
281 274 268 263 259 257 253 249 247 246 245 245 243 242 241 241 241 242 243 244 245 245 245 246 246 246 245 245 246 245 244 242 241 242 243 244 244 243 242 242 242 241 241 242 242 243 243 244 243 244 245 247 248 249 250 252 253 254 255 257 259 260 261 261 262 262 261 261 260 259 258 258 258 258 257 257 257 257 257 257 257 258 257 257 257 256 256 256
284 278 272 265 260 258 254 251 248 245 244 244 243 241 240 239 239 240 242 243 244 244 244 245 246 245 245 245 245 245 244 243 242 242 243 244 244 244 244 245 245 244 244 243 243 243 243 244 244 244 245 246 248 249 250 252 253 255 256 258 261 263 263 263 263 262 261 260 260 259 258 258 258 258 257 257 257 257 257 257 257 257 257 257 257 257 256 255
288 282 275 268 262 258 256 253 250 247 245 245 244 242 241 239 238 239 240 241 242 243 244 244 245 245 244 244 244 243 244 243 243 243 243 244 245 245 246 246 246 247 246 246 246 244 244 246 247 246 247 248 250 251 253 254 255 256 258 260 262 264 265 265 264 262 260 259 257 257 258 258 259 259 258 258 257 257 257 257 257 257 257 257 257 257 257 256
295 287 279 271 265 260 257 255 252 249 245 243 243 243 242 240 238 238 238 239 240 241 242 243 243 243 243 243 242 242 242 242 243 243 243 243 245 245 246 246 247 247 247 248 249 248 247 248 249 250 251 252 254 256 258 259 260 261 263 264 264 264 264 264 264 263 261 259 256 254 254 254 254 255 257 257 257 257 257 257 257 257 257 257 257 257 257 257
303 294 285 277 270 264 259 256 253 249 245 242 241 242 242 242 241 239 239 239 239 240 241 242 243 243 243 243 242 242 241 241 241 242 242 242 243 244 245 245 246 247 248 249 251 252 252 252 253 254 255 256 257 258 259 260 261 263 264 264 264 264 264 265 265 266 266 264 262 259 256 253 251 252 252 253 254 254 255 256 256 256 256 256 256 256 256 256
Height
10616 10617 10617 10618 10618 10619 10620 10622 10623 10624 10626 10628 10630 10632 10634 10636 10639 10641 10644 10646 10649 10652 10654 10657 10659 10661 10664 10667 10669 10672 10674 10678 10681 10684 10686 10689 10691 10693 10695 10695 10698 10701 10704 10708 10711 10712 10715 10719 10721 10721 10721 10722 10724 10726 10730 10734 10736 10736 10736 10735 10734 10732 10732 10735 10736 10735 10738 10743 10745 10745 10748 10752 10754 10755 10756 10755 10754 10752 10751 10750 10751 10752 10753 10753 10753 10752 10751 10750
10608 10609 10609 10610 10610 10611 10612 10613 10614 10616 10618 10620 10622 10624 10626 10628 10630 10633 10636 10639 10642 10644 10647 10649 10651 10654 10657 10659 10661 10664 10667 10671 10674 10677 10679 10681 10683 10685 10686 10687 10690 10694 10697 10700 10703 10705 10707 10711 10712 10712 10713 10714 10716 10718 10722 10726 10728 10728 10728 10727 10722 10721 10725 10729 10729 10727 10730 10735 10737 10738 10740 10744 10746 10747 10747 10745 10745 10743 10741 10741 10744 10744 10745 10746 10745 10744 10743 10742
10601 10601 10601 10602 10602 10603 10604 10605 10606 10608 10609 10611 10614 10616 10618 10620 10622 10625 10628 10631 10634 10637 10639 10641 10644 10647 10649 10652 10654 10657 10660 10663 10666 10669 10671 10673 10675 10676 10678 10680 10683 10686 10688 10690 10694 10698 10700 10703 10704 10704 10705 10706 10709 10712 10715 10718 10721 10721 10722 10718 10711 10713 10719 10721 10720 10719 10722 10726 10729 10730 10731 10736 10738 10738 10737 10736 10735 10735 10734 10735 10737 10737 10738 10738 10738 10736 10734 10735
10593 10593 10594 10594 10595 10595 10596 10597 10599 10600 10602 10603 10606 10608 10610 10612 10614 10617 10620 10623 10626 10629 10632 10634 10637 10639 10642 10644 10647 10649 10653 10656 10659 10661 10663 10666 10668 10669 10670 10672 10675 10678 10680 10682 10685 10690 10692 10694 10694 10696 10697 10699 10703 10705 10707 10710 10714 10716 10715 10708 10702 10708 10711 10711 10713 10714 10715 10717 10721 10723 10723 10727 10730 10730 10728 10727 10726 10727 10728 10729 10729 10729 10729 10730 10730 10727 10727 10728
10586 10586 10586 10587 10587 10588 10589 10590 10591 10592 10594 10596 10598 10600 10602 10604 10607 10610 10613 10616 10619 10622 10624 10627 10629 10632 10635 10637 10639 10642 10646 10649 10651 10654 10656 10659 10660 10662 10663 10665 10668 10670 10672 10674 10677 10681 10683 10684 10685 10687 10689 10693 10696 10698 10699 10702 10708 10710 10706 10698 10696 10702 10702 10703 10708 10708 10708 10709 10711 10714 10716 10718 10721 10721 10720 10719 10719 10720 10721 10721 10721 10722 10722 10722 10720 10719 10721 10721
10579 10579 10579 10579 10580 10580 10581 10582 10583 10585 10586 10588 10590 10592 10594 10597 10599 10602 10605 10608 10611 10614 10617 10619 10622 10625 10627 10629 10632 10635 10639 10642 10644 10646 10649 10651 10653 10654 10656 10658 10661 10663 10665 10667 10670 10672 10674 10675 10677 10679 10682 10685 10689 10690 10691 10696 10702 10702 10696 10690 10690 10695 10694 10696 10700 10699 10701 10701 10700 10705 10709 10711 10712 10712 10713 10713 10713 10713 10714 10714 10714 10715 10715 10714 10712 10712 10713 10713
10572 10572 10572 10572 10572 10573 10574 10575 10576 10577 10579 10581 10583 10585 10587 10589 10592 10595 10598 10601 10604 10607 10609 10612 10615 10618 10620 10622 10624 10627 10632 10635 10636 10638 10641 10643 10645 10647 10649 10651 10653 10656 10659 10660 10662 10663 10665 10667 10670 10672 10675 10679 10682 10682 10684 10690 10694 10692 10686 10682 10683 10688 10687 10687 10691 10690 10692 10694 10693 10697 10702 10704 10703 10704 10707 10708 10707 10706 10707 10708 10708 10708 10708 10707 10705 10705 10705 10706
10566 10565 10565 10565 10566 10566 10567 10568 10569 10570 10572 10574 10576 10578 10580 10582 10585 10588 10591 10594 10597 10600 10602 10605 10607 10610 10612 10614 10617 10620 10624 10627 10629 10631 10633 10635 10637 10640 10642 10644 10646 10649 10652 10653 10654 10655 10658 10661 10663 10666 10669 10673 10674 10674 10677 10681 10683 10681 10676 10675 10678 10682 10679 10677 10682 10683 10684 10687 10689 10693 10695 10695 10696 10698 10701 10701 10700 10699 10699 10700 10700 10701 10700 10698 10696 10697 10699 10701
10559 10559 10558 10559 10559 10560 10560 10561 10562 10563 10565 10567 10569 10571 10573 10575 10578 10581 10584 10587 10589 10592 10594 10597 10600 10602 10605 10607 10609 10614 10617 10619 10622 10623 10625 10628 10630 10633 10635 10637 10639 10641 10644 10646 10647 10649 10652 10655 10657 10660 10662 10663 10664 10665 10669 10672 10674 10672 10669 10671 10674 10674 10671 10669 10673 10675 10677 10680 10684 10687 10687 10687 10690 10694 10693 10692 10692 10693 10692 10692 10692 10693 10693 10689 10688 10690 10693 10696
10554 10553 10553 10553 10553 10553 10554 10555 10556 10557 10558 10560 10562 10564 10566 10569 10572 10574 10577 10579 10582 10585 10587 10590 10592 10595 10597 10599 10603 10607 10610 10613 10614 10615 10618 10621 10623 10625 10628 10630 10632 10634 10636 10638 10640 10643 10646 10648 10650 10651 10652 10654 10655 10657 10661 10664 10666 10664 10663 10666 10667 10666 10664 10662 10664 10667 10670 10675 10679 10681 10680 10681 10685 10686 10684 10682 10685 10686 10685 10685 10684 10685 10684 10681 10682 10685 10688 10691
10548 10547 10547 10547 10547 10548 10548 10549 10550 10551 10552 10554 10556 10557 10560 10563 10565 10567 10570 10572 10575 10578 10580 10582 10584 10587 10589 10592 10596 10599 10602 10605 10606 10608 10611 10613 10616 10618 10620 10623 10625 10627 10629 10632 10635 10637 10639 10640 10641 10642 10644 10646 10647 10649 10653 10656 10659 10658 10657 10659 10659 10658 10657 10656 10656 10659 10665 10670 10673 10675 10676 10677 10677 10675 10674 10675 10677 10678 10679 10678 10677 10677 10676 10675 10677 10680 10682 10684
10543 10542 10542 10542 10542 10542 10543 10543 10544 10545 10547 10548 10549 10551 10554 10556 10558 10561 10563 10566 10568 10570 10573 10575 10577 10580 10582 10585 10589 10591 10594 10598 10599 10601 10604 10606 10608 10610 10613 10615 10617 10619 10622 10625 10628 10629 10632 10633 10634 10635 10636 10637 10638 10641 10646 10649 10651 10651 10651 10652 10652 10651 10650 10649 10648 10653 10660 10665 10667 10669 10671 10672 10667 10664 10666 10670 10670 10671 10673 10671 10669 10670 10669 10669 10671 10673 10675 10677
10538 10537 10537 10537 10537 10537 10537 10538 10539 10540 10541 10542 10544 10545 10548 10549 10552 10554 10556 10559 10561 10563 10566 10568 10570 10573 10576 10579 10581 10582 10588 10591 10591 10594 10596 10598 10601 10602 10605 10607 10609 10612 10615 10618 10620 10622 10625 10625 10625 10627 10627 10629 10631 10634 10638 10641 10642 10643 10644 10644 10644 10644 10643 10641 10644 10649 10654 10656 10659 10663 10666 10664 10656 10655 10660 10663 10663 10666 10666 10662 10663 10663 10662 10664 10665 10667 10669 10670
10533 10532 10532 10532 10532 10532 10533 10533 10534 10535 10535 10537 10538 10539 10541 10543 10545 10547 10550 10552 10554 10557 10559 10561 10563 10566 10569 10571 10572 10576 10582 10583 10583 10586 10589 10591 10593 10595 10597 10600 10602 10605 10608 10611 10613 10616 10617 10616 10617 10619 10619 10622 10625 10628 10631 10633 10633 10635 10637 10636 10636 10637 10635 10636 10640 10643 10644 10647 10651 10657 10661 10655 10647 10649 10655 10655 10657 10660 10657 10654 10656 10657 10656 10658 10659 10661 10662 10663
10528 10528 10527 10527 10527 10528 10528 10528 10529 10529 10530 10531 10532 10534 10535 10537 10539 10541 10544 10546 10548 10550 10552 10554 10557 10559 10563 10563 10564 10570 10575 10576 10576 10579 10582 10584 10586 10588 10590 10592 10595 10598 10601 10604 10606 10608 10609 10608 10610 10611 10612 10615 10618 10621 10623 10625 10625 10627 10629 10629 10630 10630 10628 10630 10634 10636 10637 10639 10643 10649 10652 10647 10641 10644 10648 10648 10650 10652 10649 10648 10650 10650 10650 10652 10654 10655 10656 10656
10524 10523 10523 10523 10523 10523 10523 10524 10524 10524 10525 10526 10527 10528 10529 10531 10534 10536 10538 10540 10541 10543 10545 10548 10550 10553 10556 10556 10558 10564 10569 10569 10569 10572 10575 10576 10578 10581 10583 10586 10589 10591 10594 10596 10599 10601 10601 10601 10603 10604 10606 10608 10611 10613 10615 10616 10617 10618 10621 10623 10623 10621 10620 10624 10628 10630 10631 10632 10634 10639 10643 10641 10638 10638 10639 10640 10642 10643 10641 10642 10644 10644 10645 10646 10647 10648 10649 10649
10519 10518 10518 10518 10518 10519 10519 10519 10519 10519 10519 10520 10521 10523 10524 10526 10528 10530 10532 10533 10535 10536 10539 10542 10544 10547 10549 10550 10553 10557 10561 10562 10562 10565 10567 10569 10572 10574 10577 10580 10582 10584 10587 10589 10592 10593 10594 10595 10596 10598 10600 10601 10603 10606 10607 10609 10610 10612 10615 10617 10616 10614 10615 10617 10621 10623 10623 10624 10627 10630 10633 10634 10633 10632 10631 10633 10634 10635 10634 10636 10638 10638 10639 10640 10640 10641 10641 10642
10515 10514 10514 10514 10514 10514 10514 10514 10514 10514 10514 10515 10517 10518 10519 10520 10521 10523 10525 10527 10529 10531 10533 10536 10538 10541 10543 10544 10546 10549 10553 10556 10557 10558 10561 10564 10567 10569 10571 10574 10575 10578 10580 10582 10585 10587 10587 10588 10589 10591 10593 10594 10596 10599 10601 10603 10605 10607 10608 10608 10608 10609 10609 10611 10613 10615 10616 10617 10619 10622 10624 10626 10626 10626 10624 10625 10627 10628 10629 10630 10631 10632 10633 10633 10634 10634 10634 10636
10510 10510 10509 10509 10509 10509 10509 10509 10509 10509 10510 10510 10511 10512 10513 10514 10515 10517 10519 10521 10523 10525 10527 10529 10531 10534 10535 10537 10540 10542 10546 10551 10552 10553 10555 10558 10561 10564 10566 10568 10569 10571 10573 10576 10579 10580 10581 10582 10583 10585 10587 10589 10591 10593 10596 10598 10599 10599 10599 10600 10601 10603 10603 10604 10607 10609 10609 10611 10612 10614 10616 10618 10619 10619 10617 10618 10620 10621 10623 10624 10625 10626 10627 10628 10629 10628 10627 10631
10506 10506 10505 10505 10505 10505 10505 10505 10505 10505 10505 10505 10506 10506 10507 10507 10510 10512 10513 10515 10517 10519 10521 10523 10525 10528 10530 10533 10535 10536 10540 10544 10546 10547 10549 10552 10555 10558 10560 10562 10563 10565 10568 10571 10572 10573 10575 10576 10577 10580 10582 10584 10586 10587 10590 10591 10591 10592 10592 10592 10594 10595 10596 10598 10601 10603 10603 10605 10606 10608 10610 10611 10611 10612 10611 10611 10613 10614 10616 10617 10619 10620 10621 10622 10623 10622 10623 10626
10502 10502 10501 10501 10501 10500 10500 10500 10500 10500 10500 10500 10500 10500 10501 10503 10505 10507 10509 10511 10512 10514 10516 10517 10520 10522 10525 10527 10529 10530 10534 10536 10539 10543 10545 10547 10550 10552 10554 10556 10558 10560 10563 10565 10565 10566 10569 10571 10573 10576 10578 10579 10579 10581 10583 10584 10585 10585 10585 10586 10587 10589 10590 10591 10594 10597 10598 10599 10601 10603 10604 10603 10604 10605 10605 10605 10606 10607 10609 10612 10613 10615 10616 10617 10617 10617 10618 10620
10498 10497 10497 10497 10496 10496 10496 10495 10496 10496 10496 10495 10495 10495 10497 10499 10500 10503 10505 10506 10508 10509 10510 10512 10514 10516 10520 10522 10523 10526 10528 10530 10534 10538 10540 10543 10544 10546 10548 10550 10552 10556 10558 10558 10558 10561 10564 10567 10569 10571 10572 10572 10573 10575 10577 10578 10578 10579 10579 10580 10582 10584 10584 10585 10588 10591 10593 10594 10596 10598 10598 10597 10598 10599 10600 10599 10600 10602 10604 10606 10608 10610 10610 10611 10613 10612 10612 10614
10494 10493 10493 10492 10492 10492 10491 10491 10491 10491 10491 10490 10490 10491 10493 10494 10496 10499 10500 10500 10502 10503 10504 10506 10508 10511 10515 10517 10518 10521 10522 10525 10529 10532 10534 10537 10539 10540 10542 10544 10548 10551 10550 10551 10553 10557 10560 10563 10564 10565 10566 10567 10568 10570 10572 10572 10572 10572 10572 10574 10577 10578 10579 10580 10582 10585 10587 10589 10590 10592 10592 10591 10592 10593 10594 10594 10595 10597 10599 10601 10603 10605 10605 10606 10608 10607 10607 10608
10489 10489 10488 10488 10488 10487 10487 10487 10486 10486 10486 10485 10485 10488 10489 10491 10493 10494 10494 10494 10496 10498 10498 10499 10502 10506 10510 10512 10514 10515 10516 10520 10524 10524 10527 10530 10533 10535 10537 10540 10544 10545 10544 10545 10549 10552 10555 10558 10559 10560 10561 10562 10563 10565 10566 10566 10566 10566 10567 10569 10572 10574 10574 10575 10577 10579 10582 10583 10585 10586 10587 10587 10588 10588 10588 10589 10591 10592 10594 10596 10599 10600 10600 10601 10602 10602 10602 10603
10485 10484 10484 10484 10483 10483 10483 10482 10482 10481 10481 10480 10482 10484 10486 10487 10488 10488 10489 10489 10490 10493 10493 10493 10496 10501 10506 10509 10508 10507 10510 10515 10517 10519 10520 10524 10527 10530 10533 10536 10538 10538 10538 10541 10545 10548 10550 10552 10554 10555 10556 10557 10558 10559 10560 10560 10560 10560 10561 10564 10567 10569 10569 10570 10571 10574 10576 10578 10579 10581 10581 10582 10583 10583 10583 10584 10585 10587 10589 10592 10594 10595 10596 10596 10597 10598 10598 10599
10480 10479 10479 10479 10479 10479 10478 10477 10477 10476 10476 10476 10478 10481 10482 10483 10483 10482 10484 10483 10483 10487 10487 10487 10492 10497 10502 10502 10499 10501 10506 10508 10511 10514 10515 10517 10521 10525 10528 10530 10530 10532 10534 10537 10540 10543 10545 10547 10549 10550 10551 10552 10552 10553 10554 10555 10555 10555 10556 10559 10562 10564 10564 10565 10567 10568 10571 10573 10574 10575 10576 10578 10579 10578 10579 10580 10581 10582 10584 10586 10588 10590 10591 10592 10592 10594 10594 10595
10476 10475 10474 10474 10474 10474 10474 10473 10473 10472 10472 10473 10475 10476 10477 10478 10478 10477 10479 10478 10477 10481 10482 10482 10487 10492 10495 10496 10495 10498 10500 10500 10505 10509 10509 10512 10515 10519 10522 10523 10525 10527 10530 10532 10535 10538 10539 10542 10544 10545 10546 10546 10546 10548 10549 10550 10550 10550 10551 10554 10557 10558 10559 10561 10562 10563 10566 10568 10569 10570 10571 10573 10574 10573 10574 10576 10577 10578 10579 10581 10582 10584 10586 10587 10588 10589 10590 10591
10471 10470 10469 10469 10469 10469 10469 10469 10469 10468 10467 10468 10470 10471 10472 10473 10473 10473 10474 10473 10472 10475 10477 10479 10482 10486 10490 10491 10491 10492 10492 10494 10500 10503 10505 10508 10510 10513 10516 10517 10519 10523 10526 10529 10529 10531 10534 10536 10538 10540 10540 10540 10540 10542 10544 10545 10545 10545 10546 10548 10551 10553 10554 10556 10557 10558 10561 10563 10564 10565 10566 10567 10568 10569 10570 10572 10573 10574 10575 10576 10577 10578 10580 10582 10583 10584 10586 10587
10466 10465 10464 10464 10464 10464 10464 10464 10465 10464 10462 10463 10466 10467 10467 10468 10468 10468 10469 10468 10467 10469 10472 10475 10478 10480 10484 10486 10485 10485 10486 10491 10495 10497 10500 10503 10505 10507 10508 10510 10514 10518 10522 10523 10522 10524 10527 10530 10532 10534 10534 10534 10535 10536 10538 10539 10539 10539 10540 10541 10544 10548 10550 10551 10552 10554 10556 10558 10560 10561 10562 10562 10562 10564 10565 10567 10568 10569 10570 10571 10572 10574 10575 10577 10578 10579 10581 10583
10460 10459 10458 10458 10459 10459 10458 10459 10460 10459 10458 10459 10461 10461 10462 10463 10463 10465 10465 10462 10461 10465 10469 10471 10473 10475 10479 10480 10480 10480 10482 10486 10489 10491 10494 10497 10500 10501 10503 10506 10510 10513 10516 10517 10516 10517 10520 10524 10526 10527 10528 10528 10529 10530 10532 10533 10534 10534 10534 10535 10538 10542 10544 10546 10547 10549 10551 10553 10555 10556 10558 10558 10558 10558 10560 10562 10563 10564 10565 10566 10567 10570 10571 10572 10573 10575 10578 10580
10454 10454 10453 10452 10454 10454 10453 10455 10456 10454 10453 10455 10456 10456 10457 10458 10459 10460 10458 10454 10456 10462 10465 10467 10469 10471 10473 10475 10475 10476 10477 10480 10483 10485 10488 10492 10494 10496 10498 10500 10503 10506 10510 10511 10510 10510 10514 10517 10519 10521 10522 10523 10524 10524 10526 10527 10528 10528 10528 10530 10534 10536 10538 10541 10542 10543 10545 10547 10548 10550 10552 10554 10554 10553 10553 10556 10558 10559 10560 10561 10563 10565 10567 10568 10570 10572 10575 10578
10448 10449 10447 10446 10448 10448 10447 10451 10452 10448 10448 10449 10450 10452 10452 10453 10455 10454 10449 10447 10452 10458 10460 10462 10464 10466 10468 10469 10469 10470 10471 10474 10477 10479 10482 10486 10488 10490 10492 10494 10497 10500 10503 10505 10504 10504 10508 10511 10513 10515 10516 10517 10518 10518 10519 10521 10522 10523 10523 10526 10529 10530 10532 10533 10536 10538 10539 10541 10542 10544 10547 10549 10550 10549 10548 10549 10551 10554 10556 10557 10558 10561 10562 10564 10566 10569 10572 10575
10442 10443 10441 10440 10441 10441 10443 10446 10446 10444 10443 10443 10445 10446 10447 10449 10449 10444 10441 10443 10449 10454 10456 10458 10459 10461 10463 10463 10463 10465 10467 10470 10472 10474 10477 10480 10483 10484 10486 10488 10492 10495 10497 10499 10498 10498 10501 10504 10506 10508 10509 10510 10511 10511 10512 10514 10517 10518 10519 10521 10523 10524 10525 10526 10528 10531 10533 10535 10537 10539 10541 10544 10546 10545 10544 10543 10543 10547 10550 10552 10554 10557 10558 10559 10562 10565 10568 10571
10436 10436 10435 10434 10434 10435 10438 10440 10440 10438 10437 10437 10439 10440 10442 10443 10440 10435 10435 10440 10446 10450 10452 10453 10454 10456 10457 10457 10458 10461 10464 10465 10468 10470 10472 10475 10477 10478 10481 10483 10486 10488 10490 10492 10493 10493 10495 10497 10499 10501 10502 10504 10505 10505 10507 10509 10511 10513 10514 10516 10517 10517 10519 10519 10521 10524 10527 10530 10533 10535 10537 10539 10540 10540 10539 10537 10537 10540 10544 10546 10549 10553 10554 10555 10558 10561 10564 10567
10428 10429 10428 10427 10428 10428 10430 10433 10433 10431 10430 10431 10433 10436 10437 10435 10430 10428 10432 10438 10443 10445 10446 10447 10449 10450 10451 10452 10453 10457 10460 10461 10464 10466 10467 10470 10472 10473 10476 10478 10481 10483 10485 10486 10487 10487 10488 10491 10492 10493 10495 10497 10498 10499 10501 10504 10506 10507 10509 10510 10510 10511 10513 10513 10515 10518 10521 10524 10527 10530 10532 10534 10534 10535 10534 10533 10531 10533 10537 10541 10544 10548 10550 10552 10555 10557 10560 10563
10420 10422 10422 10421 10420 10420 10421 10424 10425 10424 10423 10424 10428 10432 10430 10425 10423 10425 10428 10434 10438 10439 10440 10442 10443 10444 10446 10448 10449 10452 10455 10457 10459 10461 10463 10466 10467 10469 10471 10473 10475 10478 10479 10480 10481 10482 10483 10484 10486 10487 10489 10492 10493 10494 10496 10498 10500 10502 10503 10503 10503 10505 10507 10508 10510 10512 10515 10517 10520 10524 10527 10528 10529 10530 10530 10528 10526 10527 10531 10535 10538 10542 10546 10548 10550 10553 10556 10558
10412 10415 10415 10413 10412 10411 10413 10416 10418 10418 10416 10418 10423 10426 10422 10419 10419 10420 10423 10428 10432 10434 10435 10436 10438 10439 10441 10443 10444 10447 10450 10452 10454 10457 10459 10461 10463 10465 10467 10467 10469 10471 10473 10474 10476 10477 10477 10477 10480 10481 10484 10486 10488 10488 10491 10493 10494 10495 10497 10497 10498 10499 10502 10504 10505 10506 10508 10509 10513 10517 10520 10521 10523 10525 10524 10523 10522 10521 10524 10529 10532 10536 10540 10543 10546 10548 10550 10552
10404 10407 10407 10404 10402 10403 10406 10408 10410 10411 10410 10412 10417 10418 10415 10413 10412 10413 10417 10421 10426 10429 10430 10430 10432 10434 10436 10438 10440 10441 10444 10446 10447 10450 10454 10457 10458 10459 10460 10461 10462 10464 10467 10469 10470 10472 10473 10472 10474 10476 10477 10480 10482 10483 10485 10486 10488 10489 10490 10492 10493 10494 10496 10498 10499 10500 10501 10502 10505 10510 10514 10516 10517 10518 10518 10517 10517 10518 10520 10522 10526 10530 10534 10537 10540 10542 10543 10545
10394 10398 10398 10395 10394 10395 10397 10400 10402 10403 10404 10407 10409 10408 10408 10406 10404 10406 10411 10416 10420 10424 10425 10424 10426 10428 10430 10432 10434 10435 10438 10439 10440 10443 10448 10451 10452 10453 10453 10454 10456 10459 10462 10464 10465 10468 10469 10468 10469 10470 10471 10474 10476 10477 10479 10481 10482 10484 10484 10486 10488 10489 10490 10492 10492 10493 10495 10496 10498 10502 10507 10509 10510 10511 10513 10512 10513 10514 10515 10517 10519 10522 10526 10530 10533 10535 10535 10538
10385 10388 10388 10386 10385 10386 10388 10391 10393 10395 10397 10399 10399 10399 10400 10399 10398 10401 10406 10410 10415 10418 10418 10418 10420 10422 10424 10426 10428 10430 10432 10433 10434 10437 10440 10444 10446 10447 10447 10448 10451 10453 10456 10459 10460 10463 10464 10463 10463 10463 10465 10467 10468 10471 10473 10475 10476 10477 10478 10480 10482 10483 10484 10485 10486 10487 10489 10491 10492 10495 10499 10502 10503 10504 10505 10506 10507 10508 10509 10510 10511 10514 10518 10522 10526 10528 10529 10531
10375 10377 10377 10376 10376 10377 10378 10381 10384 10387 10389 10391 10390 10390 10392 10393 10393 10396 10400 10404 10408 10411 10411 10412 10414 10416 10418 10420 10422 10424 10425 10427 10429 10431 10433 10436 10439 10440 10442 10443 10445 10448 10450 10453 10456 10458 10458 10458 10456 10455 10457 10459 10461 10465 10468 10469 10469 10470 10471 10474 10475 10476 10477 10479 10480 10482 10484 10484 10486 10489 10492 10494 10496 10497 10497 10498 10500 10501 10502 10503 10504 10506 10510 10514 10517 10520 10523 10525
10365 10366 10366 10366 10366 10367 10369 10372 10375 10378 10381 10382 10382 10382 10385 10387 10389 10390 10392 10396 10401 10404 10406 10406 10407 10410 10412 10415 10416 10417 10420 10421 10423 10424 10426 10429 10432 10434 10436 10437 10439 10441 10444 10447 10450 10451 10451 10451 10449 10447 10450 10452 10454 10459 10462 10462 10463 10464 10465 10466 10467 10469 10471 10472 10474 10476 10478 10478 10480 10483 10485 10487 10489 10490 10491 10492 10494 10495 10495 10496 10498 10500 10503 10506 10509 10511 10514 10517
10354 10355 10355 10355 10356 10358 10360 10363 10366 10369 10371 10373 10372 10374 10379 10381 10382 10382 10384 10390 10394 10396 10398 10399 10400 10403 10406 10408 10409 10412 10414 10415 10416 10417 10419 10422 10424 10426 10428 10430 10432 10435 10437 10440 10442 10443 10444 10444 10442 10441 10442 10444 10448 10453 10456 10457 10457 10457 10458 10458 10459 10461 10463 10465 10466 10468 10471 10472 10473 10476 10480 10482 10481 10482 10484 10486 10487 10488 10488 10489 10491 10492 10494 10497 10500 10503 10505 10507
10344 10344 10344 10344 10345 10347 10350 10352 10355 10357 10360 10361 10363 10366 10370 10373 10373 10374 10377 10382 10386 10387 10390 10392 10393 10396 10398 10400 10402 10406 10408 10409 10409 10410 10413 10415 10417 10419 10421 10423 10426 10428 10430 10432 10433 10436 10437 10435 10435 10435 10435 10437 10442 10446 10448 10449 10449 10449 10450 10451 10451 10452 10455 10456 10458 10460 10463 10465 10468 10471 10474 10475 10474 10475 10476 10477 10478 10480 10481 10482 10483 10484 10486 10488 10491 10494 10496 10499
10334 10334 10333 10333 10334 10336 10338 10341 10343 10345 10348 10351 10354 10358 10361 10365 10367 10367 10369 10374 10378 10380 10382 10384 10387 10390 10391 10392 10395 10399 10402 10404 10403 10403 10406 10409 10411 10413 10414 10417 10419 10420 10422 10424 10425 10428 10429 10427 10428 10429 10429 10431 10434 10436 10439 10440 10440 10440 10441 10442 10443 10444 10446 10448 10450 10452 10455 10458 10461 10465 10467 10467 10468 10469 10469 10469 10470 10470 10471 10473 10474 10476 10477 10479 10481 10484 10487 10489
10325 10325 10324 10324 10324 10325 10328 10331 10333 10336 10340 10342 10346 10350 10354 10358 10359 10359 10362 10366 10370 10372 10374 10376 10380 10383 10385 10386 10388 10391 10395 10397 10397 10397 10398 10402 10405 10407 10408 10410 10412 10413 10415 10416 10417 10420 10421 10420 10422 10423 10423 10424 10426 10427 10429 10431 10432 10433 10432 10433 10435 10437 10438 10441 10443 10445 10448 10451 10454 10458 10459 10459 10460 10461 10462 10462 10461 10461 10461 10462 10464 10467 10469 10471 10472 10474 10475 10477
10316 10316 10316 10316 10316 10316 10320 10323 10324 10327 10330 10332 10337 10342 10346 10349 10350 10351 10354 10357 10361 10364 10366 10369 10373 10376 10378 10380 10381 10384 10388 10391 10391 10390 10391 10394 10398 10401 10402 10404 10405 10406 10408 10409 10410 10412 10413 10413 10415 10416 10416 10417 10418 10419 10420 10422 10424 10425 10425 10425 10427 10429 10431 10434 10436 10439 10441 10444 10446 10449 10450 10450 10451 10453 10453 10453 10452 10452 10452 10453 10455 10457 10459 10461 10462 10463 10465 10466
10309 10309 10309 10309 10309 10309 10311 10314 10315 10318 10321 10323 10328 10333 10336 10340 10342 10344 10347 10349 10353 10356 10359 10361 10365 10369 10372 10373 10375 10377 10380 10383 10384 10384 10385 10387 10390 10393 10395 10396 10398 10400 10402 10403 10404 10405 10405 10406 10408 10409 10409 10409 10410 10411 10412 10413 10415 10417 10418 10419 10420 10422 10425 10427 10429 10432 10434 10436 10438 10439 10441 10442 10443 10443 10443 10443 10443 10444 10444 10445 10446 10447 10448 10449 10450 10452 10455 10456
10302 10302 10302 10302 10302 10302 10304 10305 10308 10311 10313 10315 10320 10324 10327 10331 10335 10337 10339 10342 10345 10348 10351 10354 10357 10361 10364 10367 10369 10371 10373 10375 10377 10378 10379 10381 10383 10386 10388 10389 10391 10393 10395 10396 10396 10398 10399 10399 10400 10402 10402 10402 10403 10403 10404 10406 10408 10411 10413 10414 10415 10416 10418 10421 10422 10424 10426 10428 10430 10431 10432 10433 10435 10435 10435 10435 10435 10436 10436 10437 10437 10438 10438 10439 10440 10442 10444 10446
10297 10296 10296 10296 10296 10296 10297 10299 10302 10305 10308 10310 10313 10316 10320 10324 10327 10330 10332 10334 10337 10340 10343 10346 10349 10353 10357 10359 10362 10364 10366 10368 10370 10371 10373 10375 10376 10379 10381 10382 10384 10386 10387 10388 10388 10391 10392 10392 10393 10395 10396 10396 10397 10397 10398 10399 10401 10404 10407 10408 10410 10412 10412 10413 10414 10416 10418 10420 10422 10424 10425 10426 10427 10427 10426 10427 10427 10428 10428 10428 10429 10429 10429 10430 10431 10432 10434 10436
10293 10291 10291 10291 10291 10291 10293 10294 10296 10299 10302 10305 10307 10310 10313 10316 10320 10322 10325 10327 10330 10332 10335 10338 10341 10345 10348 10350 10354 10356 10358 10361 10363 10364 10367 10369 10370 10372 10374 10375 10377 10378 10379 10380 10381 10384 10386 10386 10387 10389 10390 10391 10392 10392 10392 10393 10394 10398 10401 10402 10404 10404 10404 10405 10405 10406 10409 10411 10414 10417 10419 10420 10420 10420 10419 10419 10420 10420 10420 10420 10421 10421 10421 10421 10422 10423 10425 10427
10289 10288 10287 10287 10287 10287 10288 10289 10291 10293 10296 10299 10302 10304 10307 10310 10313 10316 10319 10321 10323 10325 10327 10330 10333 10337 10339 10342 10346 10349 10351 10353 10355 10356 10359 10361 10363 10365 10366 10368 10369 10371 10372 10374 10375 10377 10379 10380 10381 10384 10385 10386 10386 10387 10386 10386 10388 10392 10395 10395 10395 10395 10396 10396 10397 10398 10400 10402 10404 10407 10410 10412 10413 10413 10413 10412 10412 10412 10412 10412 10412 10412 10412 10413 10413 10415 10417 10419